Regional Weather Roundup
Issued by NWS

Home | Current Version | Previous Version | Text Only | Print | Product List | Glossary On
Versions: 1 2 3 4 5 6 7 8 9 10 11 12 13 14 15 16 17 18 19 20 21 22 23 24 25 26 27 28 29 30 31 32 33 34 35 36 37 38 39 40 41 42 43 44 45 46 47 48 49 50
000
ASUS43 KLMK 050710
RWRKY
KENTUCKY REGIONAL WEATHER ROUNDUP
NATIONAL WEATHER SERVICE LOUISVILLE KY
300 AM EDT SUN JUL 05 2015

NOTE "FAIR" INDICATES FEW OR NO CLOUDS BELOW 12,000 FEET
WITH NO SIGNIFICANT WEATHER AND/OR OBSTRUCTIONS TO VISIBILITY.

KYZ001>023-026-027-061>063-070>075-050800-
WESTERN AND SOUTH CENTRAL KENTUCKY

CITY           SKY/WX    TMP DP  RH WIND       PRES   REMARKS
PADUCAH        CLOUDY    69  67  93 CALM      30.02S FOG
HENDERSON      CLOUDY    70  66  88 CALM      30.01S
OWENSBORO      CLOUDY    72  70  93 CALM      30.02R FOG
HOPKINSVILLE   CLOUDY    71  69  94 W6        30.01F
BOWLING GREEN  CLOUDY    72  68  87 CALM      30.00F
GLASGOW        CLOUDY    70  70  99 CALM      30.01S
$$

KYZ024-025-028>034-038-045-046-053-050800-
NORTH CENTRAL KENTUCKY

CITY           SKY/WX    TMP DP  RH WIND       PRES   REMARKS
LOUISVILLE/SDF CLOUDY    74  67  78 E3        30.01F
LOUISVILLE/LOU CLOUDY    74  67  78 CALM      30.02F
FORT KNOX      CLOUDY    71  68  90 NE2       30.00F
$$

KYZ035>037-039>044-047>052-055>060-089>105-050800-
NORTHEAST KENTUCKY

CITY           SKY/WX    TMP DP  RH WIND       PRES   REMARKS
LEXINGTON      CLOUDY    71  66  84 E5        30.04F
COVINGTON      CLOUDY    68  60  75 E5        30.06F
FRANKFORT      CLOUDY    69  66  90 CALM      30.03F FOG
$$

KYZ054-064>069-076>088-106>120-050800-
SOUTHEAST KENTUCKY

CITY           SKY/WX    TMP DP  RH WIND       PRES   REMARKS
JACKSON        CLOUDY    70  67  90 CALM      30.07S FOG
LONDON         CLOUDY    70  65  84 CALM      30.05S
SOMERSET       CLOUDY    66  66 100 S5        30.05F
MIDDLESBORO    RAIN      68  67  94 SW6       30.08R
MONTICELLO     CLOUDY    69  69 100 CALM      30.07S
$$




USA.gov is the U.S. government's official web portal to all federal, state and local government web resources and services.